NIEUW!!! Volg onze weer- en natuurfoto's op Instagram @ weerstationmaaseik.be

WS Maaseik 1 Meer informatie WS Maaseik 1


WS Maaseik 2 Meer informatie WS Maaseik 2


Regen radar Meer informatie rain snow radar


Bezoek onze andere website:

Vorige versie
weerstation Maaseik


Bezoek ook eens deze sites:

Weerstation Geleen

Weerstation Luyksgestel



Het weer levert geen direct gevaar op.    Er zijn geen waarschuwingen afgegeven.

15 daagse weersverwachting Grenoble (FR)

  • Overzicht
  • Per uur
  • 15 dagen
  • Extra
  • Vergelijk
  • Kaarten
  • Dagkaart
  • Meer »
  • Info
  • Statistieken
  • Directe link
    Temp 6h Neerslag Wind  
 07:26     19:33    Daglengte: 12:07 Morgen
02:00
15°
35.7 mm
1
08:00
13°
5.9 mm
1
14:00
20°
 
3
20:00
16°
 
2
 07:28     19:31    Daglengte: 12:03 Dinsdag 24 Sep
02:00
13°
 
1
08:00
13°
 
1
14:00
19°
25.7 mm
1
20:00
20°
 
1
 07:29     19:29    Daglengte: 12:00 Woensdag 25 Sep
02:00
16°
16.0 mm
1
08:00
15°
31.7 mm
1
14:00
20°
 
1
20:00
17°
66.7 mm
0
Locatie info
Region: Rhône-Alpes
Latitude: 45.1667°N
Longitude: 5.7167°E
221 masl
Temp/Neerslag /Baro Onweer/Dauwpunt
    Temp Baro 1h Neerslag Dauwpunt Wind UV Bewolking  
 07:26     19:33    Daglengte: 12:07 Morgen
00:00
16°
1016.3 hPa 18.9 mm
51%
14.0°
3
Windvlaag: -3.8 m/s
89%
01:00
15°
1017.3 hPa 9.1 mm
82%
13.4°
2
Windvlaag: -3.6 m/s
91%
02:00
15°
1017.7 hPa 7.7 mm
82%
13.2°
1
Windvlaag: -2.7 m/s
90%
03:00
15°
1017.3 hPa 5.9 mm
82%
13.1°
1
Windvlaag: -1.2 m/s
76%
04:00
14°
1017.1 hPa
81%
12.6°
1
Windvlaag: 0.8 m/s
26%
05:00
14°
1016.8 hPa
26%
12.0°
1
Windvlaag: 0.7 m/s
32%
06:00
14°
1017.0 hPa
29%
11.8°
1
Windvlaag: 0 m/s
12%
07:00
14°
1017.5 hPa
34%
11.4°
1
Windvlaag: -0.8 m/s
8%
08:00
13°
1018.0 hPa
36%
11.0°
1
Windvlaag: -1.4 m/s
21%
09:00
15°
1018.2 hPa
32%
11.8°
2
Windvlaag: -1.4 m/s
20%
10:00
16°
1018.4 hPa
26%
12.5°
2
Windvlaag: -1.7 m/s
6%
11:00
17°
1018.3 hPa
15%
12.8°
3
Windvlaag: -1.9 m/s
8%
12:00
18°
1018.0 hPa
14%
12.2°
3
Windvlaag: -2.6 m/s
14%
13:00
19°
1017.4 hPa
14%
11.4°
3
Windvlaag: -2.8 m/s
17%
14:00
20°
1017.1 hPa
14%
11.1°
3
Windvlaag: -2.7 m/s
18%
15:00
20°
1016.7 hPa
14%
10.9°
3
Windvlaag: -2.8 m/s
52%
16:00
20°
1016.4 hPa
14%
10.4°
3
Windvlaag: -2.6 m/s
66%
17:00
20°
1016.1 hPa
14%
9.7°
3
Windvlaag: -2.6 m/s
44%
18:00
19°
1016.3 hPa
14%
9.4°
3
Windvlaag: -2.6 m/s
33%
19:00
18°
1016.6 hPa
14%
9.7°
2
Windvlaag: -2.4 m/s
62%
20:00
16°
1017.2 hPa
14%
10.2°
2
Windvlaag: -1.9 m/s
18%
21:00
16°
1017.6 hPa
14%
9.8°
2
Windvlaag: -1.7 m/s
7%
22:00
15°
1017.7 hPa
14%
9.3°
2
Windvlaag: -1.7 m/s
39%
23:00
15°
1017.7 hPa
14%
8.9°
1
Windvlaag: -1.6 m/s
48%
 07:28     19:31    Daglengte: 12:03 Dinsdag 24 Sep
00:00
14°
1017.4 hPa
14%
8.7°
1
Windvlaag: -1.8 m/s
22%
01:00
14°
1017.1 hPa
14%
8.6°
1
Windvlaag: -1.7 m/s
25%
02:00
13°
1016.9 hPa
14%
8.7°
1
Windvlaag: -1.2 m/s
3%
03:00
13°
1016.6 hPa
14%
8.8°
1
Windvlaag: -1.1 m/s
8%
04:00
13°
1016.0 hPa
14%
8.8°
1
Windvlaag: -0.7 m/s
25%
05:00
12°
1015.8 hPa
14%
8.8°
1
Windvlaag: -0.5 m/s
27%
06:00
12°
1015.4 hPa
14%
8.7°
1
Windvlaag: -0.4 m/s
55%
07:00
12°
1015.3 hPa
14%
8.8°
1
Windvlaag: -0.3 m/s
69%
08:00
13°
1015.2 hPa
22%
9.7°
1
Windvlaag: 0 m/s
73%
09:00
14°
1015.0 hPa
32%
9.9°
1
Windvlaag: 0.2 m/s
86%
10:00
15°
1015.2 hPa
82%
11.1°
1
Windvlaag: 0.2 m/s
88%
11:00
16°
1014.8 hPa
82%
11.2°
1
Windvlaag: -0.1 m/s
85%
12:00
17°
1014.8 hPa 8.5 mm
14%
12.7°
1
Windvlaag: 0.5 m/s
85%
13:00
18°
1014.6 hPa 8.8 mm
14%
13.6°
1
Windvlaag: 1.4 m/s
72%
14:00
19°
1014.5 hPa 8.4 mm
14%
14.5°
1
Windvlaag: 1.2 m/s
40%
15:00
20°
1013.8 hPa
14%
13.1°
1
Windvlaag: 1.1 m/s
32%
16:00
20°
1013.3 hPa
14%
11.8°
2
Windvlaag: 0.8 m/s
37%
17:00
22°
1013.1 hPa
22%
11.3°
1
Windvlaag: 0.5 m/s
76%
18:00
22°
1012.9 hPa
30%
12.2°
1
Windvlaag: 0.5 m/s
30%
19:00
21°
1013.1 hPa
79%
12.0°
1
Windvlaag: 0.8 m/s
42%
20:00
20°
1013.5 hPa
91%
12.0°
1
Windvlaag: 1 m/s
32%
21:00
19°
1013.9 hPa
41%
12.4°
1
Windvlaag: 0.6 m/s
57%
22:00
18°
1014.2 hPa
26%
13.0°
1
Windvlaag: 0.6 m/s
87%
23:00
17°
1014.7 hPa
24%
13.1°
1
Windvlaag: 0.8 m/s
86%
 07:29     19:29    Daglengte: 12:00 Woensdag 25 Sep
00:00
17°
1015.1 hPa 8.1 mm
23%
12.9°
1
Windvlaag: 0.4 m/s
82%
01:00
16°
1014.8 hPa 7.9 mm
23%
14.0°
1
Windvlaag: 0.8 m/s
58%
02:00
16°
1014.3 hPa
100%
13.1°
1
Windvlaag: 0.6 m/s
42%
03:00
16°
1014.0 hPa 8.0 mm
100%
12.9°
1
Windvlaag: 0.5 m/s
83%
04:00
15°
1013.8 hPa 7.9 mm
100%
12.8°
1
Windvlaag: 0.3 m/s
88%
05:00
15°
1014.0 hPa
59%
12.8°
1
Windvlaag: 0.1 m/s
91%
06:00
15°
1013.9 hPa 7.9 mm
48%
12.2°
1
Windvlaag: -0.2 m/s
84%
07:00
15°
1014.0 hPa 7.9 mm
45%
12.5°
1
Windvlaag: -0.6 m/s
70%
08:00
15°
1014.0 hPa
97%
12.6°
1
Windvlaag: -1.2 m/s
60%
09:00
15°
1014.5 hPa
99%
13.4°
0
Windvlaag: -1.1 m/s
83%
10:00
16°
1014.7 hPa
42%
13.6°
0
Windvlaag: -1 m/s
77%
11:00
17°
1014.8 hPa
25%
14.1°
1
Windvlaag: -1.2 m/s
58%
12:00
18°
1014.6 hPa
84%
14.4°
1
Windvlaag: -1.3 m/s
67%
13:00
19°
1014.2 hPa
32%
14.6°
1
Windvlaag: -1.7 m/s
51%
14:00
20°
1013.8 hPa
22%
14.3°
1
Windvlaag: -1.7 m/s
61%
15:00
19°
1013.6 hPa
31%
12.9°
1
Windvlaag: 0.3 m/s
58%
16:00
19°
1013.6 hPa 13.0 mm
40%
12.3°
1
Windvlaag: 0.4 m/s
57%
17:00
19°
1013.6 hPa 13.0 mm
95%
11.8°
1
Windvlaag: 0.4 m/s
56%
18:00
18°
1013.7 hPa 13.4 mm
100%
11.7°
1
Windvlaag: 0.5 m/s
77%
19:00
18°
1013.7 hPa 13.4 mm
100%
13.7°
1
Windvlaag: 0.4 m/s
86%
20:00
17°
1013.9 hPa 13.8 mm
100%
11.3°
0
Windvlaag: 0.3 m/s
94%
21:00
18°
1014.3 hPa 38.8 mm
100%
12.3°
0
Windvlaag: 2.6 m/s
95%
22:00
17°
1014.6 hPa 38.8 mm
100%
12.7°
0
Windvlaag: 1.3 m/s
93%
23:00
17°
1014.9 hPa 38.8 mm
100%
13.0°
0
Windvlaag: 0.5 m/s
94%
Temp/Neerslag /Baro Onweer/Dauwpunt
    Temp Baro Neerslag Dauwpunt Wind Bewolking  
 07:26     19:33    Daglengte: 12:07 Morgen
02:00
15°
1017.7 hPa 35.7 mm 13.2°
1
90%
05:00
14°
1016.8 hPa 5.9 mm 12.0°
1
32%
08:00
13°
1018.0 hPa   11.0°
1
21%
11:00
17°
1018.3 hPa   12.8°
3
8%
14:00
20°
1017.1 hPa   11.1°
3
18%
17:00
20°
1016.1 hPa   9.7°
3
44%
20:00
16°
1017.2 hPa   10.2°
2
18%
23:00
15°
1017.7 hPa   8.9°
1
48%
 07:28     19:31    Daglengte: 12:03 Dinsdag 24 Sep
02:00
13°
1016.9 hPa   8.7°
1
3%
05:00
12°
1015.8 hPa   8.8°
1
27%
08:00
13°
1015.2 hPa   9.7°
1
73%
11:00
16°
1014.8 hPa   11.2°
1
85%
14:00
19°
1014.5 hPa 25.7 mm 14.5°
1
40%
17:00
22°
1013.1 hPa   11.3°
1
76%
20:00
20°
1013.5 hPa   12.0°
1
32%
23:00
17°
1014.7 hPa   13.1°
1
86%
 07:29     19:29    Daglengte: 12:00 Woensdag 25 Sep
02:00
16°
1014.3 hPa 16.0 mm 13.1°
1
42%
05:00
15°
1014.0 hPa 15.9 mm 12.8°
1
91%
08:00
15°
1014.0 hPa 15.8 mm 12.6°
1
60%
11:00
17°
1014.8 hPa   14.1°
1
58%
14:00
20°
1013.8 hPa   14.3°
1
61%
17:00
19°
1013.6 hPa 26.0 mm 11.8°
1
56%
20:00
17°
1013.9 hPa 40.6 mm 11.3°
0
94%
23:00
17°
1014.9 hPa 116.3 mm 13.0°
0
94%
 07:30     19:27    Daglengte: 11:57 Donderdag 26 Sep
02:00
16°
1015.8 hPa 116.6 mm 14.0°
1
94%
05:00
15°
1017.1 hPa 49.6 mm 13.7°
0
92%
08:00
15°
1017.7 hPa 49.6 mm 13.6°
0
92%
11:00
17°
1018.5 hPa 49.6 mm 14.3°
1
91%
14:00
19°
1019.1 hPa 49.6 mm 14.8°
1
91%
17:00
19°
1018.5 hPa 49.6 mm 14.7°
1
49%
20:00
18°
1018.1 hPa 49.6 mm 14.6°
1
6%
23:00
17°
1018.8 hPa 49.6 mm 14.2°
1
10%
 07:31     19:25    Daglengte: 11:54 Vrijdag 27 Sep
02:00
16°
1019.2 hPa 49.6 mm 13.6°
1
14%
05:00
15°
1018.9 hPa 49.6 mm 13.1°
1
11%
08:00
15°
1018.6 hPa 49.6 mm 12.6°
1
8%
11:00
19°
1018.4 hPa 49.6 mm 14.8°
1
40%
14:00
24°
1018.1 hPa 49.7 mm 16.4°
1
72%
17:00
22°
1018.5 hPa 51.6 mm 17.0°
1
43%
20:00
20°
1019.2 hPa 54.4 mm 16.9°
1
14%
23:00
18°
1020.1 hPa 57.6 mm 16.2°
1
48%
 07:33     19:23    Daglengte: 11:50 Zaterdag 28 Sep
02:00
16°
1020.9 hPa 58.6 mm 15.4°
1
82%
05:00
16°
1021.1 hPa 58.9 mm 15.4°
0
86%
08:00
16°
1021.4 hPa 59.0 mm 15.3°
0
90%
11:00
18°
1021.0 hPa 59.3 mm 15.7°
1
90%
14:00
21°
1020.6 hPa 59.3 mm 15.3°
2
90%
17:00
20°
1020.0 hPa 59.3 mm 14.4°
1
52%
20:00
18°
1019.6 hPa 59.3 mm 13.6°
0
13%
23:00
16°
1019.5 hPa 59.3 mm 12.7°
1
26%
 07:34     19:21    Daglengte: 11:47 Zondag 29 Sep
02:00
13°
1019.2 hPa 59.3 mm 11.6°
1
39%
05:00
13°
1018.8 hPa 59.3 mm 11.7°
1
64%
08:00
13°
1018.4 hPa 59.3 mm 11.7°
1
90%
11:00
18°
1017.9 hPa 59.3 mm 12.8°
1
85%
14:00
22°
1017.4 hPa 59.3 mm 12.3°
1
80%
17:00
21°
1016.5 hPa 59.3 mm 11.7°
1
79%
20:00
20°
1015.7 hPa 59.7 mm 11.1°
0
77%
23:00
18°
1015.5 hPa   13.0°
1
84%
 07:35     19:20    Daglengte: 11:45 Maandag 30 Sep
02:00
17°
1015.2 hPa 124.9 mm 14.2°
1
91%
08:00
16°
1012.3 hPa 133.7 mm 14.4°
1
84%
14:00
15°
1014.8 hPa 140.0 mm 12.7°
2
92%
20:00
14°
1016.6 hPa 140.5 mm 11.7°
2
61%
 07:36     19:18    Daglengte: 11:42 Dinsdag 01 Okt
02:00
11°
1018.9 hPa 140.5 mm 9.5°
2
18%
08:00
10°
Voelt als: 9.6°
1020.2 hPa 140.5 mm 9.6°
2
41%
14:00
17°
1019.6 hPa 140.5 mm 8.3°
4
24%
20:00
12°
1020.4 hPa 140.5 mm 6.9°
2
1%
 07:38     19:16    Daglengte: 11:38 Woensdag 02 Okt
02:00
Voelt als: 9.0°
1022.2 hPa 140.5 mm 6.0°
1
84%
08:00
1021.6 hPa 140.5 mm 6.0°
1
5%
14:00
20°
1019.2 hPa 140.5 mm 11.3°
1
44%
20:00
15°
1016.9 hPa 0.6 mm 12.3°
2
40%
 07:39     19:14    Daglengte: 11:35 Donderdag 03 Okt
02:00
12°
1018.5 hPa 0.4 mm 10.0°
2
45%
08:00
11°
1018.2 hPa   8.2°
2
42%
14:00
20°
1017.0 hPa   10.4°
3
42%
20:00
14°
1017.5 hPa   10.6°
2
48%
 07:40     19:12    Daglengte: 11:32 Vrijdag 04 Okt
02:00
12°
1018.6 hPa   8.1°
2
42%
08:00
11°
1018.3 hPa 0.1 mm 7.1°
2
40%
14:00
21°
1016.8 hPa   9.2°
3
37%
20:00
14°
1017.2 hPa   10.3°
2
34%
 07:41     19:10    Daglengte: 11:29 Zaterdag 05 Okt
02:00
12°
1018.3 hPa   8.2°
2
28%
08:00
11°
1017.7 hPa   7.2°
2
26%
14:00
22°
1016.4 hPa   10.4°
2
21%
20:00
15°
1016.8 hPa   11.1°
2
19%
 07:43     19:08    Daglengte: 11:25 Zondag 06 Okt
02:00
13°
1017.9 hPa 0.2 mm 9.3°
1
19%
08:00
11°
1018.3 hPa 1.0 mm 7.8°
1
23%
14:00
21°
1017.7 hPa 0.2 mm 10.0°
2
19%
20:00
14°
1018.6 hPa 0.1 mm 10.4°
2
22%
 07:44     19:06    Daglengte: 11:22 Maandag 07 Okt
02:00
12°
1019.9 hPa   8.6°
1
24%
08:00
11°
1019.9 hPa   7.4°
1
22%
14:00
21°
1018.8 hPa   10.2°
2
15%
20:00
14°
1019.7 hPa 0.2 mm 10.9°
1
17%
  CAPE Lifted Index Hail Supercell Tornado SRH 3km CL BTM PRES CL TOP PRES Swiss DWD icon SMHI TS
 07:26     19:33    Daglengte: 12:07 Morgen
00:00 13 J/kg 3.4 K 0 % 0 % 0 % 0 m²/s² 0 0 3.52 65
01:00 9 J/kg 4.6 K 0 % 0 % 0 % 0 m²/s² 0 0 4.78 63
02:00 0 J/kg 4.4 K 0 % 0 % 0 % 0 m²/s² 0 0 4.43 61
03:00 0 J/kg 5.0 K 0 % 0 % 0 % 0 m²/s² 0 0 7.28 61
04:00 0 J/kg 5.0 K 0 % 0 % 0 % 0 m²/s² 0 0 10.79 61
05:00 0 J/kg 3.7 K 0 % 0 % 0 % 0 m²/s² 0 0 9.64 2
06:00 0 J/kg 1.5 K 0 % 0 % 0 % 0 m²/s² 0 0 7.23 3
07:00 0 J/kg 1.2 K 0 % 0 % 0 % 0 m²/s² 0 0 6.33 2
08:00 2 J/kg 1.9 K 0 % 0 % 0 % 0 m²/s² 0 0 7.33 2
09:00 39 J/kg 2.3 K 0 % 0 % 0 % 0 m²/s² 0 0 7.88 2
10:00 67 J/kg 2.5 K 0 % 0 % 0 % 0 m²/s² 0 0 8.08 2
11:00 62 J/kg 3.1 K 0 % 0 % 0 % 0 m²/s² 0 0 8.86 1
12:00 56 J/kg 3.9 K 0 % 0 % 0 % 0 m²/s² 0 0 10.02 0
13:00 38 J/kg 4.9 K 0 % 0 % 0 % 0 m²/s² 0 0 11.59 0
14:00 25 J/kg 5.7 K 0 % 0 % 0 % 0 m²/s² 0 0 13.35 0
15:00 17 J/kg 5.9 K 0 % 0 % 0 % 0 m²/s² 0 0 14.51 2
16:00 6 J/kg 6.4 K 0 % 0 % 0 % 0 m²/s² 0 0 15.37 3
17:00 1 J/kg 6.9 K 0 % 0 % 0 % 0 m²/s² 0 0 15.9 1
18:00 0 J/kg 7.8 K 0 % 0 % 0 % 0 m²/s² 0 0 16.11 1
19:00 0 J/kg 8.4 K 0 % 0 % 0 % 0 m²/s² 0 0 15.36 3
20:00 0 J/kg 8.9 K 0 % 0 % 0 % 0 m²/s² 0 0 14.6 0
21:00 0 J/kg 9.1 K 0 % 0 % 0 % 0 m²/s² 0 0 14.11 0
22:00 0 J/kg 9.2 K 0 % 0 % 0 % 0 m²/s² 0 0 13.52 1
23:00 0 J/kg 9.3 K 0 % 0 % 0 % 0 m²/s² 0 0 12.81 1
 07:28     19:31    Daglengte: 12:03 Dinsdag 24 Sep
00:00 0 J/kg 9.7 K 0 % 0 % 0 % 0 m²/s² 0 0 12.31 2
01:00 0 J/kg 10.4 K 0 % 0 % 0 % 0 m²/s² 0 0 12.11 3
02:00 0 J/kg 11.3 K 0 % 0 % 0 % 0 m²/s² 0 0 13.1 1
03:00 0 J/kg 12.2 K 0 % 0 % 0 % 0 m²/s² 0 0 14.24 3
04:00 0 J/kg 12.4 K 0 % 0 % 0 % 0 m²/s² 0 0 14.8 3
05:00 0 J/kg 11.6 K 0 % 0 % 0 % 0 m²/s² 0 0 14.09 3
06:00 0 J/kg 8.8 K 0 % 0 % 0 % 0 m²/s² 0 0 11.53 2
07:00 0 J/kg 7.6 K 0 % 0 % 0 % 0 m²/s² 0 0 10.18 3
08:00 0 J/kg 7.1 K 0 % 0 % 0 % 0 m²/s² 0 0 9.02 3
09:00 0 J/kg 6.3 K 0 % 0 % 0 % 0 m²/s² 0 0 6.48 3
10:00 0 J/kg 6.8 K 0 % 0 % 0 % 0 m²/s² 0 0 6.8 61
11:00 0 J/kg 5.1 K 0 % 0 % 0 % 0 m²/s² 0 0 5.13 61
12:00 0 J/kg 3.5 K 0 % 0 % 0 % 0 m²/s² 0 0 4.04 3
13:00 0 J/kg 3.1 K 0 % 0 % 0 % 0 m²/s² 0 0 4.03 2
14:00 0 J/kg 2.5 K 0 % 0 % 0 % 0 m²/s² 0 0 3.07 2
15:00 0 J/kg 1.8 K 0 % 0 % 0 % 0 m²/s² 0 0 2.76 2
16:00 3 J/kg 1.6 K 0 % 0 % 0 % 0 m²/s² 0 0 2.86 2
17:00 2 J/kg 1.0 K 0 % 0 % 0 % 0 m²/s² 0 0 3.1 2
18:00 0 J/kg 0.9 K 0 % 0 % 0 % 0 m²/s² 0 0 4.17 3
19:00 0 J/kg 1.0 K 0 % 0 % 0 % 0 m²/s² 0 0 2.65 3
20:00 0 J/kg 0.7 K 0 % 0 % 0 % 0 m²/s² 0 0 0.88 2
21:00 69 J/kg -0.1 K 0 % 0 % 0 % 0 m²/s² 0 0 -0.07 2
22:00 95 J/kg 0.6 K 0 % 0 % 0 % 0 m²/s² 0 0 0.6 3
23:00 43 J/kg 1.2 K 0 % 0 % 0 % 0 m²/s² 0 0 1.5 3
 07:29     19:29    Daglengte: 12:00 Woensdag 25 Sep
00:00 16 J/kg 2.1 K 0 % 0 % 0 % 0 m²/s² 0 0 5.31 3
01:00 0 J/kg 2.8 K 0 % 0 % 0 % 0 m²/s² 0 0 3.97 3
02:00 0 J/kg 3.2 K 0 % 0 % 0 % 0 m²/s² 0 0 4.43 61
03:00 0 J/kg 4.5 K 0 % 0 % 0 % 0 m²/s² 0 0 6 61
04:00 0 J/kg 5.5 K 0 % 0 % 0 % 0 m²/s² 0 0 7.18 61
05:00 0 J/kg 6.1 K 0 % 0 % 0 % 0 m²/s² 0 0 8.5 3
06:00 0 J/kg 6.3 K 0 % 0 % 0 % 0 m²/s² 0 0 10.47 3
07:00 0 J/kg 6.2 K 0 % 0 % 0 % 0 m²/s² 0 0 11.45 3
08:00 1 J/kg 6.0 K 0 % 0 % 0 % 0 m²/s² 0 0 10.62 3
09:00 5 J/kg 6.4 K 0 % 0 % 0 % 0 m²/s² 0 0 9.85 3
10:00 16 J/kg 7.0 K 0 % 0 % 0 % 0 m²/s² 0 0 10.45 3
11:00 26 J/kg 7.3 K 0 % 0 % 0 % 0 m²/s² 0 0 11.05 3
12:00 20 J/kg 6.7 K 0 % 0 % 0 % 0 m²/s² 0 0 10.54 3
13:00 21 J/kg 6.3 K 0 % 0 % 0 % 0 m²/s² 0 0 9.42 3
14:00 23 J/kg 6.0 K 0 % 0 % 0 % 0 m²/s² 0 0 8.79 3
15:00 41 J/kg 5.9 K 0 % 0 % 0 % 0 m²/s² 0 0 8.33 3
16:00 33 J/kg 5.9 K 0 % 0 % 0 % 0 m²/s² 0 0 7.46 3
17:00 27 J/kg 5.9 K 0 % 0 % 0 % 0 m²/s² 0 0 6.8 61
18:00 31 J/kg 6.5 K 0 % 0 % 0 % 0 m²/s² 0 0 7.1 61
19:00 33 J/kg 7.3 K 0 % 0 % 0 % 0 m²/s² 0 0 7.9 61
20:00 15 J/kg 8.3 K 0 % 0 % 0 % 0 m²/s² 0 0 8.87 61
21:00 0 J/kg 8.8 K 0 % 0 % 0 % 0 m²/s² 0 0 9.37
22:00 0 J/kg 8.8 K 0 % 0 % 0 % 0 m²/s² 0 0 9.64
23:00 0 J/kg 8.9 K 0 % 0 % 0 % 0 m²/s² 0 0 10.22
Temp Baro Wind Neerslag
  EWN Forecast EWN WRFDA DWD ICON FMI HIRLAM MET Norway GFS
 07:26     19:33    Daglengte: 12:07 Morgen
02:00 14.9° 1017.7 hPa 0.9 m/s 35.7 mm 15.2° 1016.1 hPa 0.8 m/s 107.1 mm 14.3° 1017.5 hPa 0.4 m/s 37.3 mm 14.8° 1017.4 hPa 1.3 m/s 0.0 mm 15.0° 1018.1 hPa 0.9 m/s 11.3 mm 15.0° 1017.0 hPa 1.0 m/s
05:00 13.7° 1016.8 hPa 1.0 m/s 5.9 mm 13.5° 1015.4 hPa 1.7 m/s 112.1 mm 13.7° 1016.6 hPa 0.5 m/s 0.8 mm 13.5° 1017.5 hPa 1.3 m/s 0.0 mm 13.5° 1016.8 hPa 0.9 m/s 0.8 mm 13.9° 1016.4 hPa 0.9 m/s
08:00 13.4° 1018.0 hPa 1.5 m/s 0.0 mm 14.6° 1016.9 hPa 1.5 m/s 112.4 mm 13.1° 1017.8 hPa 1.3 m/s 0.0 mm 12.3° 1018.8 hPa 1.6 m/s 0.0 mm 13.4° 1018.0 hPa 1.0 m/s 0.0 mm 13.6° 1017.2 hPa 1.1 m/s
11:00 17.1° 1018.3 hPa 2.8 m/s 0.0 mm 17.1° 1017.2 hPa 4.1 m/s 112.9 mm 15.8° 1018.7 hPa 2.9 m/s 0.0 mm 17.2° 1017.5 hPa 2.5 m/s 0.0 mm 17.3° 1018.7 hPa 2.4 m/s 0.0 mm 17.0° 1017.2 hPa 2.1 m/s
14:00 19.6° 1017.1 hPa 3.2 m/s 0.0 mm 19.5° 1016.3 hPa 3.9 m/s 113.0 mm 18.3° 1017.3 hPa 3.1 m/s 0.0 mm 20.8° 1016.2 hPa 3.0 m/s 0.0 mm 19.9° 1017.2 hPa 3.0 m/s 0.0 mm 20.5° 1016.0 hPa 2.9 m/s
17:00 19.8° 1016.1 hPa 3.1 m/s 0.0 mm 20.1° 1016.0 hPa 3.7 m/s 113.0 mm 18.9° 1015.8 hPa 2.7 m/s 0.0 mm 19.9° 1016.0 hPa 2.4 m/s 0.0 mm 20.6° 1016.3 hPa 3.0 m/s 0.0 mm 20.2° 1015.5 hPa 2.6 m/s
20:00 16.0° 1017.2 hPa 2.1 m/s 0.0 mm 16.4° 1016.4 hPa 2.2 m/s 113.0 mm 15.3° 1016.8 hPa 2.1 m/s 0.0 mm 17.0° 1017.5 hPa 1.4 m/s 0.0 mm 16.0° 1017.6 hPa 1.8 m/s 0.0 mm 14.0° 1016.1 hPa 1.1 m/s
23:00 14.7° 1017.7 hPa 1.3 m/s 0.0 mm 14.9° 1017.5 hPa 1.3 m/s 113.0 mm 13.1° 1017.1 hPa 1.1 m/s 0.0 mm 14.6° 1018.6 hPa 0.6 m/s 0.0 mm 15.9° 1018.1 hPa 1.0 m/s 0.0 mm 12.8° 1018.0 hPa 0.7 m/s
 07:28     19:31    Daglengte: 12:03 Dinsdag 24 Sep
02:00 13.4° 1016.9 hPa 1.0 m/s 0.0 mm 14.4° 1016.4 hPa 0.5 m/s 113.0 mm 12.5° 1016.4 hPa 0.5 m/s 0.0 mm 12.7° 1018.7 hPa 0.6 m/s 0.0 mm 13.6° 1017.3 hPa 1.1 m/s 0.0 mm 12.4° 1017.5 hPa 0.8 m/s
05:00 12.4° 1015.8 hPa 1.5 m/s 0.0 mm 14.0° 1015.0 hPa 1.3 m/s 113.0 mm 12.3° 1015.0 hPa 1.3 m/s 0.0 mm 12.3° 1018.1 hPa 0.5 m/s 0.0 mm 12.1° 1016.4 hPa 1.6 m/s 0.0 mm 11.8° 1016.5 hPa 0.7 m/s
08:00 13.0° 1015.2 hPa 1.2 m/s 0.0 mm 15.0° 1013.9 hPa 2.2 m/s 113.0 mm 12.2° 1015.0 hPa 1.5 m/s 0.0 mm 12.5° 1016.7 hPa 0.9 m/s 0.0 mm 12.9° 1015.5 hPa 1.2 m/s 0.0 mm 12.8° 1016.0 hPa 1.6 m/s
11:00 16.3° 1014.8 hPa 1.3 m/s 0.0 mm 17.8° 1015.3 hPa 2.0 m/s 113.1 mm 14.8° 1013.6 hPa 1.7 m/s 0.2 mm 17.8° 1014.3 hPa 0.6 m/s 0.0 mm 15.6° 1015.9 hPa 0.8 m/s 0.0 mm 16.0° 1015.8 hPa 1.7 m/s
14:00 18.5° 1014.5 hPa 1.4 m/s 25.7 mm 22.6° 1013.2 hPa 3.5 m/s 113.3 mm 19.5° 1013.7 hPa 1.0 m/s 0.0 mm 19.4° 1013.3 hPa 1.5 m/s 0.0 mm 17.3° 1015.3 hPa 1.3 m/s 1.0 mm 20.9° 1014.6 hPa 2.0 m/s
17:00 22.1° 1013.1 hPa 1.3 m/s 0.0 mm 24.6° 1011.9 hPa 4.5 m/s 113.4 mm 20.2° 1011.9 hPa 0.8 m/s 0.0 mm 22.7° 1013.2 hPa 1.1 m/s 0.0 mm 21.6° 1013.6 hPa 2.2 m/s
20:00 19.8° 1013.5 hPa 0.9 m/s 0.0 mm 21.4° 1011.9 hPa 4.2 m/s 113.4 mm 18.2° 1012.8 hPa 1.1 m/s 0.0 mm 20.4° 1013.6 hPa 0.5 m/s 0.0 mm 16.2° 1013.8 hPa 1.6 m/s
23:00 17.4° 1014.7 hPa 1.1 m/s 0.0 mm 19.4° 1014.5 hPa 1.8 m/s 114.5 mm 16.0° 1013.8 hPa 1.3 m/s 0.0 mm 17.6° 1014.8 hPa 1.1 m/s 0.0 mm 15.5° 1015.4 hPa 0.8 m/s
 07:29     19:29    Daglengte: 12:00 Woensdag 25 Sep
02:00 16.2° 1014.3 hPa 1.0 m/s 16.0 mm 17.0° 1013.5 hPa 3.0 m/s 114.9 mm 14.4° 1013.6 hPa 1.3 m/s 0.2 mm 16.5° 1014.4 hPa 0.8 m/s 1.3 mm 15.1° 1014.6 hPa 0.8 m/s
05:00 15.1° 1014.0 hPa 1.3 m/s 15.9 mm 14.5° 1012.8 hPa 2.5 m/s 114.9 mm 13.7° 1013.2 hPa 1.6 m/s 0.8 mm 15.9° 1014.2 hPa 0.8 m/s 1.1 mm 15.3° 1014.3 hPa 0.5 m/s
08:00 14.6° 1014.0 hPa 0.9 m/s 15.8 mm 14.6° 1012.8 hPa 1.6 m/s 114.9 mm 12.9° 1013.8 hPa 0.6 m/s 0.0 mm 15.2° 1014.1 hPa 0.7 m/s 0.9 mm 14.6° 1013.7 hPa 0.4 m/s
11:00 17.2° 1014.8 hPa 0.7 m/s 0.0 mm 16.6° 1013.6 hPa 1.1 m/s 115.1 mm 15.7° 1014.3 hPa 0.6 m/s 0.0 mm 17.4° 1015.1 hPa 0.4 m/s 0.9 mm 18.2° 1014.1 hPa 2.0 m/s
14:00 19.6° 1013.8 hPa 1.3 m/s 0.0 mm 17.0° 1013.4 hPa 0.5 m/s 115.5 mm 17.9° 1013.4 hPa 0.6 m/s 0.0 mm 20.2° 1014.0 hPa 1.4 m/s 0.0 mm 19.4° 1013.1 hPa 1.8 m/s
17:00 18.6° 1013.6 hPa 0.9 m/s 26.0 mm 17.7° 1013.8 hPa 0.8 m/s 115.9 mm 17.2° 1012.9 hPa 0.4 m/s 0.2 mm 19.6° 1013.7 hPa 1.1 m/s 0.4 mm 18.7° 1012.9 hPa 1.6 m/s
20:00 17.3° 1013.9 hPa 0.5 m/s 40.6 mm 17.0° 1014.3 hPa 1.6 m/s 116.2 mm 15.4° 1013.7 hPa 0.6 m/s 2.9 mm 18.1° 1013.9 hPa 0.2 m/s 0.0 mm 13.9° 1014.1 hPa 1.1 m/s
23:00 16.7° 1014.9 hPa 0.4 m/s 116.3 mm 15.2° 1015.2 hPa 0.2 m/s 116.3 mm 17.0° 1014.8 hPa 0.4 m/s 12.6° 1015.9 hPa 1.5 m/s
 07:30     19:27    Daglengte: 11:57 Donderdag 26 Sep
02:00 15.8° 1015.8 hPa 0.6 m/s 116.6 mm 15.0° 1016.0 hPa 0.8 m/s 116.6 mm 15.9° 1015.8 hPa 0.6 m/s 12.1° 1016.1 hPa 0.9 m/s
05:00 15.1° 1017.1 hPa 0.5 m/s 49.6 mm 15.4° 1017.1 hPa 0.5 m/s 11.7° 1016.9 hPa 0.8 m/s 49.6 mm
08:00 14.9° 1017.7 hPa 0.4 m/s 49.6 mm 15.2° 1017.7 hPa 0.4 m/s 11.9° 1017.5 hPa 0.4 m/s 49.6 mm
11:00 17.3° 1018.5 hPa 0.6 m/s 49.6 mm 17.1° 1018.5 hPa 0.5 m/s 19.7° 1017.9 hPa 1.5 m/s 49.6 mm
14:00 19.4° 1019.1 hPa 0.7 m/s 49.6 mm 19.0° 1019.3 hPa 0.6 m/s 24.0° 1016.8 hPa 1.6 m/s 49.6 mm
17:00 19.0° 1018.5 hPa 0.9 m/s 49.6 mm 18.6° 1018.8 hPa 0.8 m/s 23.5° 1016.0 hPa 1.4 m/s 49.6 mm
20:00 18.0° 1018.1 hPa 1.0 m/s 49.6 mm 18.1° 1018.2 hPa 1.0 m/s 16.6° 1017.2 hPa 0.5 m/s 49.6 mm
23:00 16.8° 1018.8 hPa 1.2 m/s 49.6 mm 16.9° 1018.8 hPa 1.2 m/s 16.1° 1018.9 hPa 1.6 m/s 49.6 mm
 07:31     19:25    Daglengte: 11:54 Vrijdag 27 Sep
02:00 15.8° 1019.2 hPa 1.4 m/s 49.6 mm 15.7° 1019.3 hPa 1.4 m/s 17.0° 1018.6 hPa 1.6 m/s 49.6 mm
05:00 15.2° 1018.9 hPa 1.4 m/s 49.6 mm 15.1° 1019.0 hPa 1.4 m/s 16.5° 1018.0 hPa 1.4 m/s 49.6 mm
08:00 14.7° 1018.6 hPa 1.3 m/s 49.6 mm 14.5° 1018.7 hPa 1.3 m/s 17.0° 1017.7 hPa 1.4 m/s 49.6 mm
11:00 19.3° 1018.4 hPa 1.3 m/s 49.6 mm 19.1° 1018.5 hPa 1.2 m/s 21.7° 1017.5 hPa 1.6 m/s 49.6 mm
14:00 23.8° 1018.1 hPa 1.3 m/s 49.7 mm 23.6° 1018.3 hPa 1.2 m/s 25.9° 1016.3 hPa 1.8 m/s 49.7 mm
17:00 22.1° 1018.5 hPa 1.2 m/s 51.6 mm 22.0° 1018.8 hPa 1.1 m/s 23.3° 1015.0 hPa 1.7 m/s 51.6 mm
20:00 20.2° 1019.2 hPa 1.0 m/s 54.4 mm 20.4° 1019.4 hPa 1.0 m/s 17.5° 1016.7 hPa 0.5 m/s 54.4 mm
23:00 18.0° 1020.1 hPa 0.8 m/s 57.6 mm 18.2° 1020.3 hPa 0.8 m/s 15.9° 1018.3 hPa 0.4 m/s 57.6 mm
 07:33     19:23    Daglengte: 11:50 Zaterdag 28 Sep
02:00 15.9° 1020.9 hPa 0.7 m/s 58.6 mm 16.0° 1021.2 hPa 0.7 m/s 15.3° 1018.0 hPa 0.6 m/s 58.6 mm
05:00 15.8° 1021.1 hPa 0.4 m/s 58.9 mm 15.9° 1021.5 hPa 0.4 m/s 14.4° 1017.8 hPa 0.7 m/s 58.9 mm
08:00 15.7° 1021.4 hPa 0.2 m/s 59.0 mm 15.9° 1021.7 hPa 0.1 m/s 13.5° 1018.1 hPa 0.8 m/s 59.0 mm
11:00 18.4° 1021.0 hPa 0.9 m/s 59.3 mm 18.4° 1021.3 hPa 0.8 m/s 18.5° 1018.1 hPa 1.2 m/s 59.3 mm
14:00 20.8° 1020.6 hPa 1.6 m/s 59.3 mm 20.8° 1020.9 hPa 1.6 m/s 21.1° 1017.1 hPa 1.4 m/s 59.3 mm
17:00 19.9° 1020.0 hPa 1.0 m/s 59.3 mm 19.8° 1020.4 hPa 0.9 m/s 21.2° 1015.5 hPa 1.5 m/s 59.3 mm
20:00 18.4° 1019.6 hPa 0.3 m/s 59.3 mm 18.7° 1019.9 hPa 0.2 m/s 15.0° 1016.6 hPa 0.9 m/s 59.3 mm
23:00 15.6° 1019.5 hPa 0.8 m/s 59.3 mm 15.8° 1019.6 hPa 0.8 m/s 13.4° 1017.8 hPa 0.9 m/s 59.3 mm
 07:34     19:21    Daglengte: 11:47 Zondag 29 Sep
02:00 12.8° 1019.2 hPa 1.4 m/s 59.3 mm 12.9° 1019.4 hPa 1.4 m/s 12.2° 1017.0 hPa 0.9 m/s 59.3 mm
05:00 12.7° 1018.8 hPa 1.4 m/s 59.3 mm 12.8° 1019.0 hPa 1.4 m/s 11.6° 1016.1 hPa 1.2 m/s 59.3 mm
08:00 12.6° 1018.4 hPa 1.4 m/s 59.3 mm 12.7° 1018.7 hPa 1.4 m/s 11.9° 1015.3 hPa 1.9 m/s 59.3 mm
11:00 17.6° 1017.9 hPa 1.1 m/s 59.3 mm 17.4° 1018.2 hPa 1.1 m/s 19.5° 1013.9 hPa 1.6 m/s 59.3 mm
14:00 22.2° 1017.4 hPa 0.8 m/s 59.3 mm 22.2° 1017.8 hPa 0.8 m/s 21.8° 1013.0 hPa 1.0 m/s 59.3 mm
17:00 21.1° 1016.5 hPa 0.6 m/s 59.3 mm 21.1° 1017.0 hPa 0.5 m/s 20.7° 1011.3 hPa 1.4 m/s 59.3 mm
20:00 19.7° 1015.7 hPa 0.3 m/s 59.7 mm 20.0° 1016.1 hPa 0.2 m/s 16.8° 1010.9 hPa 1.0 m/s 59.7 mm
23:00 18.5° 1015.5 hPa 0.7 m/s 60.9 mm 18.7° 1015.9 hPa 0.5 m/s 15.7° 1011.2 hPa 2.3 m/s 60.9 mm
 07:35     19:20    Daglengte: 11:45 Maandag 30 Sep
02:00 17.3° 1015.2 hPa 0.8 m/s 64.0 mm 17.4° 1015.6 hPa 0.8 m/s 15.6° 1010.7 hPa 1.3 m/s 64.0 mm
08:00 15.9° 1012.3 hPa 1.4 m/s 68.4 mm 16.2° 1012.3 hPa 1.3 m/s 12.8° 1012.4 hPa 2.4 m/s 68.4 mm
14:00 15.3° 1014.8 hPa 2.1 m/s 70.2 mm 15.1° 1014.9 hPa 2.0 m/s 17.0° 1014.1 hPa 3.3 m/s 70.2 mm
20:00 13.5° 1016.6 hPa 2.0 m/s 70.3 mm 13.7° 1016.6 hPa 2.0 m/s 11.4° 1016.4 hPa 1.8 m/s 70.3 mm
 07:36     19:18    Daglengte: 11:42 Dinsdag 01 Okt
02:00 11.1° 1018.9 hPa 1.7 m/s 70.3 mm 11.2° 1018.9 hPa 1.7 m/s 10.1° 1018.8 hPa 1.1 m/s 70.3 mm
08:00 10.0° 1020.2 hPa 1.5 m/s 70.3 mm 10.1° 1020.4 hPa 1.6 m/s 8.6° 1018.2 hPa 0.7 m/s 70.3 mm
14:00 16.7° 1019.6 hPa 3.7 m/s 70.3 mm 16.4° 1019.9 hPa 3.9 m/s 20.2° 1016.8 hPa 1.9 m/s 70.3 mm
20:00 11.9° 1020.4 hPa 2.0 m/s 70.3 mm 11.6° 1020.7 hPa 2.0 m/s 15.5° 1017.2 hPa 1.6 m/s 70.3 mm
 07:38     19:16    Daglengte: 11:38 Woensdag 02 Okt
02:00 9.1° 1022.2 hPa 1.2 m/s 70.3 mm 8.7° 1022.6 hPa 1.2 m/s 13.5° 1017.6 hPa 1.1 m/s 70.3 mm
08:00 7.9° 1021.6 hPa 0.8 m/s 70.3 mm 7.3° 1022.1 hPa 0.8 m/s 14.3° 1016.4 hPa 0.7 m/s 70.3 mm
14:00 20.1° 1019.2 hPa 1.4 m/s 70.3 mm 19.7° 1019.5 hPa 1.4 m/s 23.9° 1015.6 hPa 0.8 m/s 70.3 mm
20:00 15.1° 1016.9 hPa 2.5 m/s 0.6 mm
 07:39     19:14    Daglengte: 11:35 Donderdag 03 Okt
02:00 12.4° 1018.5 hPa 2.2 m/s 0.4 mm
08:00 11.1° 1018.2 hPa 2.2 m/s 0.0 mm
14:00 20.3° 1017.0 hPa 3.1 m/s 0.0 mm
20:00 14.2° 1017.5 hPa 2.4 m/s 0.0 mm
 07:40     19:12    Daglengte: 11:32 Vrijdag 04 Okt
02:00 11.6° 1018.6 hPa 1.8 m/s 0.0 mm
08:00 11.0° 1018.3 hPa 2.0 m/s 0.1 mm
14:00 21.0° 1016.8 hPa 3.0 m/s 0.0 mm
20:00 14.2° 1017.2 hPa 2.4 m/s 0.0 mm
 07:41     19:10    Daglengte: 11:29 Zaterdag 05 Okt
02:00 12.1° 1018.3 hPa 1.5 m/s 0.0 mm
08:00 11.4° 1017.7 hPa 1.7 m/s 0.0 mm
14:00 22.3° 1016.4 hPa 2.0 m/s 0.0 mm
20:00 15.1° 1016.8 hPa 1.6 m/s 0.0 mm
 07:43     19:08    Daglengte: 11:25 Zondag 06 Okt
02:00 12.6° 1017.9 hPa 1.3 m/s 0.2 mm
08:00 11.1° 1018.3 hPa 1.4 m/s 1.0 mm
14:00 20.7° 1017.7 hPa 2.1 m/s 0.2 mm
20:00 13.8° 1018.6 hPa 1.7 m/s 0.1 mm
 07:44     19:06    Daglengte: 11:22 Maandag 07 Okt
02:00 11.6° 1019.9 hPa 1.2 m/s 0.0 mm
08:00 10.5° 1019.9 hPa 1.2 m/s 0.0 mm
14:00 21.3° 1018.8 hPa 1.5 m/s 0.0 mm
20:00 14.1° 1019.7 hPa 1.1 m/s 0.2 mm
FMI Hirlam - 7.5 km EWN WRFDA - 12 km DWD ICON - 7 km GFS - 25 km Basiskaart






























































Updatetijd (Europe/Brussels) Resolutie Lengte Stap
FMI Hirlam 19:00, 01:00, 07:00, 13:00 7.5 km 49h 1h
EWN WRFDA 21:30, 03:30, 09:30, 15:30 12 km 73h 1h
DWD ICON 17:45, 23:45, 05:45, 11:45 7 km 75h 1h
GFS 20:30, 02:30, 08:30, 14:30 25 km 237h 3h
30+ mm
25-30 mm
20-25 mm
15-20 mm
10-15 mm
6-10 mm
4-6 mm
2-4 mm
1-2 mm
0.5-1 mm
0.2-0.5 mm
0.1-0.2 mm
30+ mm
25-30 mm
20-25 mm
15-20 mm
10-15 mm
6-10 mm
4-6 mm
2-4 mm
1-2 mm
0.5-1 mm
0.2-0.5 mm
0.1-0.2 mm
Sneeuwval
Natte sneeuw
Hagel
Vorst
30+ mm
25-30 mm
20-25 mm
15-20 mm
10-15 mm
6-10 mm
4-6 mm
2-4 mm
1-2 mm
0.5-1 mm
0.2-0.5 mm
0.1-0.2 mm
Sneeuwval
Natte sneeuw
Hagel
Vorst
Onweer
50 mm
40 mm
30 mm
26 mm
22 mm
18 mm
14 mm
10 mm
9 mm
8 mm
7 mm
6 mm
5 mm
4.5 mm
4 mm
3.5 mm
3 mm
2.5 mm
2 mm
1.5 mm
1 mm
0.8 mm
0.6 mm
0.4 mm
0.2 mm
0.05 mm
35°
30°
25°
20°
15°
10°
-5°
-10°
-15°
-20°
-25°
-30°
-35°
33> m/s
29 m/s
25 m/s
21 m/s
17 m/s
14 m/s
11 m/s
8 m/s
5 m/s
3 m/s
0 m/s
2600 J/kg
2400 J/kg
2200 J/kg
2000 J/kg
1800 J/kg
1600 J/kg
1400 J/kg
1200 J/kg
1000 J/kg
800 J/kg
600 J/kg
400 J/kg
200 J/kg
70 dBZ
65 dBZ
60 dBZ
55 dBZ
50 dBZ
45 dBZ
40 dBZ
35 dBZ
30 dBZ
25 dBZ
20 dBZ
15 dBZ
10 dBZ
5 dBZ
-1 K
-2 K
-3 K
-4 K
-5 K
-6 K
-7 K
-8 K
-9 K
950 m²/s²
900 m²/s²
850 m²/s²
800 m²/s²
750 m²/s²
700 m²/s²
650 m²/s²
600 m²/s²
550 m²/s²
500 m²/s²
450 m²/s²
400 m²/s²
350 m²/s²
300 m²/s²
250 m²/s²
200 m²/s²
150 m²/s²
100 m²/s²
46 m/s
44 m/s
42 m/s
40 m/s
38 m/s
36 m/s
34 m/s
32 m/s
30 m/s
28 m/s
26 m/s
24 m/s
22 m/s
20 m/s
16 m/s
12 m/s
8 m/s
4 m/s
30 m/s
28 m/s
26 m/s
24 m/s
22 m/s
20 m/s
18 m/s
16 m/s
14 m/s
12 m/s
10 m/s
8 m/s
6 m/s
4 m/s
2 m/s
3.0
2.8
2.6
2.4
2.2
2.0
1.8
1.6
1.4
1.2
1.0
0.8
0.6
0.4
0.2
15
14
13
12
11
10
9
8
7
6
5
4
3
2
1
90%
80%
70%
60%
50%
40%
30%
20%
10%
42
40
38
36
34
32
30
28
26
24
22
20
18
16
14
12
90+ cm
80-90 cm
70-80 cm
60-70 cm
50-60 cm
40-50 cm
30-40 cm
20-30 cm
10-20 cm
1-10 cm
Sneeuwval
Natte sneeuw
Regen
>120 mm
115 mm
110 mm
105 mm
100 mm
95 mm
90 mm
85 mm
80 mm
75 mm
70 mm
65 mm
60 mm
55 mm
50 mm
45 mm
45 mm
40 mm
35 mm
30 mm
25 mm
20 mm
15 mm
10 mm
5 mm
0.1 mm
960 hPa
880 hPa
800 hPa
720 hPa
640 hPa
560 hPa
584 gpdm
568 gpdm
552 gpdm
536 gpdm
520 gpdm
504 gpdm
488 gpdm
Extreem zwaar Noodweer Kans op onweer
15% 15% 5% 50% 15%

Dag




Kaart






35°
30°
25°
20°
15°
10°
-5°
-10°
-15°
-20°
-25°